Terminal Aerodrome Forecast
Issued by NWS

Home | Current Version | Previous Version | Text Only | Print | Product List | Glossary On
Versions: 1 2 3 4 5 6 7 8 9 10 11 12 13 14 15 16 17 18 19 20 21 22 23 24 25 26 27 28 29 30 31 32 33 34 35 36 37 38 39 40 41 42 43 44 45 46 47 48 49 50
000
FTUS46 KEKA 011100 CCE
TAFACV
TAF COR
KACV 011100Z 0110/0206 VRB03KT P6SM SCT250
     FM011200 00000KT P6SM BKN009
     FM011400 04002KT 1SM BR BKN003
     FM011800 31007KT P6SM FEW003
     FM012000 32010G18KT P6SM SKC
     FM020300 33008KT 6SM HZ SKC=

USA.gov is the U.S. government's official web portal to all federal, state and local government web resources and services.